ECMWFNIL_850_rhum_012.txt.gz
RH
51 55 59 61 61 63 65 65 66 68 70 71 72 73 75 77 81 85 84 81 77 72 69 65 61 60 59 58 57 55 53 48 41 49 70 71 57 57 54 35 22 19
49 52 57 61 62 61 60 62 64 66 69 73 74 73 73 76 79 82 84 83 80 75 73 69 63 60 60 58 57 57 56 54 47 51 67 71 70 77 63 34 21 20
54 54 55 56 59 62 60 59 60 63 67 73 77 76 74 76 77 80 83 84 83 79 75 73 69 63 61 60 59 58 58 56 50 51 60 65 79 88 63 33 24 22
61 62 63 57 53 57 62 61 58 60 65 71 80 81 77 76 76 78 81 83 83 82 78 76 73 69 67 65 62 59 58 56 51 52 54 60 84 93 64 37 29 23
66 64 67 66 58 53 60 66 62 61 64 70 80 86 84 80 77 77 80 83 83 82 80 78 75 74 73 69 66 61 59 57 53 54 55 61 85 93 69 44 33 27
75 68 65 69 68 60 57 64 68 68 69 73 82 89 90 85 80 78 80 82 83 82 81 79 76 75 73 71 68 64 62 60 56 58 57 61 83 95 75 49 36 31
81 79 72 68 68 65 60 60 67 72 74 77 83 89 94 91 85 82 81 82 84 83 82 80 77 75 73 71 69 67 68 64 60 62 62 63 84 99 81 52 40 36
81 84 83 76 69 66 61 59 65 72 74 78 81 86 95 96 91 86 84 84 84 84 84 82 79 76 74 72 69 68 70 67 62 63 64 69 88 102 85 58 45 39
82 82 84 84 78 72 65 62 68 74 77 80 81 84 92 98 97 91 87 87 86 85 86 85 82 77 74 72 70 69 68 68 65 61 63 75 91 101 90 66 49 41
84 83 82 82 80 78 72 70 75 80 82 84 84 85 89 96 100 97 91 89 88 88 87 87 85 79 74 73 71 69 67 68 67 62 64 76 90 99 94 71 51 43
85 85 82 79 79 78 75 77 82 85 87 89 88 88 89 94 99 100 96 93 90 90 90 89 88 83 77 73 71 70 68 67 70 69 67 72 86 99 97 74 54 48
86 85 83 81 82 82 80 82 85 88 92 93 92 93 93 94 98 100 99 96 93 93 92 92 92 89 82 75 73 73 71 70 73 74 71 73 86 100 98 77 59 54
89 90 90 88 86 87 86 86 87 91 96 97 95 96 96 96 98 99 100 99 96 95 95 95 95 93 87 80 75 75 74 73 75 78 79 81 90 101 98 80 62 56
95 96 96 93 91 91 90 88 88 90 95 97 95 94 94 95 95 95 98 100 99 98 97 98 97 95 92 85 79 77 77 76 77 81 86 90 97 101 97 82 65 59
99 99 98 96 95 96 94 90 87 88 91 94 93 92 93 95 95 95 98 100 100 100 99 99 99 97 94 90 85 82 81 81 83 87 92 97 99 101 98 85 68 63
100 100 99 98 99 99 96 90 86 85 87 88 89 90 92 96 99 98 98 99 100 100 99 99 99 98 98 96 91 89 88 88 90 93 97 100 99 100 100 89 72 67
100 99 98 99 100 100 97 93 92 94 94 91 89 89 92 97 99 99 99 99 100 100 100 100 100 99 100 99 97 96 95 95 97 98 99 100 100 100 100 93 79 70
99 97 96 98 100 100 98 98 99 100 98 93 88 90 96 98 96 98 100 100 100 100 99 99 100 100 100 100 100 99 99 100 100 100 100 101 100 100 100 98 86 73
98 96 96 98 99 100 100 99 101 99 92 87 88 93 99 98 96 97 100 100 100 100 99 97 98 100 100 100 100 100 100 101 100 100 100 100 100 100 100 100 92 77
96 96 97 99 99 100 100 99 101 98 86 83 93 100 99 99 98 99 100 100 100 100 100 98 97 98 100 100 100 100 100 100 99 100 100 99 101 100 99 101 95 79
98 97 98 99 100 100 100 99 101 96 84 83 95 101 99 100 100 99 100 100 100 100 101 100 97 97 99 100 100 100 100 99 100 100 100 100 100 99 100 102 94 79
100 99 99 100 100 99 100 100 99 97 91 92 98 100 100 100 99 99 100 100 100 100 100 100 99 99 100 100 100 100 100 100 100 100 100 100 99 99 101 101 93 80
99 101 100 100 100 100 101 99 96 95 96 98 100 99 100 100 99 99 100 100 100 100 100 100 100 99 100 100 100 100 100 100 100 100 100 99 99 100 101 99 92 81
96 100 100 100 100 100 100 95 89 90 95 99 100 100 100 100 100 100 100 100 100 100 99 100 100 100 101 100 100 100 100 100 100 100 100 99 99 100 100 99 93 86
95 100 100 99 100 100 96 86 79 84 93 98 100 100 100 100 100 100 100 99 100 100 100 100 100 101 100 100 100 100 99 100 100 100 100 99 99 100 100 100 97 95
95 99 100 100 100 96 85 75 77 88 97 99 97 98 100 100 100 100 100 99 99 100 100 100 100 100 100 100 100 100 99 100 100 100 100 99 100 100 100 99 99 99

ECMWFNIL_850_rhum_015.txt.gz
RH
70 76 78 80 80 78 74 70 68 66 65 68 71 71 71 71 72 74 76 78 79 78 79 83 84 83 79 74 71 67 65 63 61 61 60 60 58 54 48 41 38 37
70 74 79 82 83 82 80 75 70 64 60 62 68 73 74 74 75 77 78 80 81 80 80 82 84 84 81 77 72 68 66 64 62 61 61 62 60 57 51 44 41 39
71 74 79 83 85 85 83 80 75 67 58 55 60 70 76 77 77 79 82 84 85 84 82 82 83 84 83 79 74 70 67 64 63 62 63 64 63 60 54 47 44 43
73 75 79 82 84 85 85 85 81 74 65 57 57 64 73 79 80 80 84 88 89 87 85 84 83 84 84 82 78 73 68 65 63 62 64 66 64 62 58 52 48 48
75 76 79 82 84 85 86 88 86 80 72 62 57 61 70 78 80 80 82 87 92 91 88 86 84 84 84 84 81 76 72 68 65 63 65 66 65 63 61 57 52 53
76 78 80 83 85 87 90 90 88 84 77 69 64 63 70 79 81 81 81 83 90 95 94 89 85 85 85 84 84 80 76 72 68 66 66 67 67 66 65 62 56 57
78 80 82 84 86 89 92 92 91 86 79 76 74 71 76 84 86 87 87 85 87 94 98 94 88 86 86 85 84 82 78 75 71 68 67 68 69 68 68 64 58 57
81 83 84 85 88 91 92 92 90 85 80 80 79 76 81 89 92 93 95 94 93 94 98 99 93 89 88 86 85 83 80 76 72 70 68 68 70 69 69 66 62 60
84 86 86 88 91 94 95 94 88 81 81 84 83 80 84 91 95 97 99 99 99 97 98 100 98 93 90 88 87 85 82 78 74 72 70 69 70 70 71 70 68 65
87 87 87 91 95 97 98 97 90 83 84 87 86 86 87 90 93 96 98 99 99 98 98 100 100 98 94 91 89 87 85 81 76 73 72 71 71 72 74 74 72 67
89 89 91 95 98 99 100 97 92 90 91 91 90 91 90 90 91 91 94 97 96 95 96 96 96 98 98 96 92 90 88 85 80 75 73 74 72 72 74 74 72 70
92 93 97 100 100 100 100 98 96 96 96 95 94 94 93 92 90 90 92 94 93 92 91 90 89 91 97 99 97 94 91 87 83 77 74 74 74 74 75 75 74 74
97 98 99 100 100 100 100 99 99 99 100 99 98 98 97 92 87 85 88 91 92 91 89 89 90 90 94 99 100 98 94 90 86 80 75 75 76 76 76 76 76 77
93 99 100 99 100 100 99 98 99 99 99 97 99 101 99 95 87 83 87 91 91 89 87 90 95 95 95 98 99 100 98 93 90 83 78 76 78 79 78 77 78 81
89 94 98 99 101 99 97 97 99 100 96 93 98 101 99 96 88 83 89 91 89 89 88 90 94 94 95 98 100 100 99 97 93 88 82 79 79 80 79 79 81 84
91 89 94 100 101 99 97 96 98 100 99 96 99 100 101 98 89 85 90 90 88 91 93 93 92 90 93 98 100 99 100 99 96 92 88 84 81 81 81 82 84 86
93 88 91 99 99 98 99 98 99 101 100 100 100 99 101 99 90 87 92 94 94 97 98 96 95 93 95 100 100 99 100 100 98 96 92 88 85 83 84 86 86 88
89 84 86 95 99 100 100 100 100 100 100 101 100 99 101 97 91 90 96 99 99 100 100 98 97 98 99 100 100 99 100 100 100 98 95 92 90 88 90 90 89 92
85 84 83 91 99 100 99 99 100 100 100 100 99 100 99 96 94 96 99 100 100 100 100 99 99 100 100 100 100 99 100 101 100 98 97 96 94 94 95 94 94 98
91 94 90 92 99 100 98 99 100 100 100 100 100 101 99 96 97 99 99 99 100 100 100 98 98 100 100 100 100 99 100 100 98 97 97 97 98 98 98 98 99 100
98 101 97 96 100 100 99 99 100 100 100 100 100 100 100 99 98 98 98 99 100 100 100 99 98 100 100 100 100 99 100 100 98 97 97 99 100 99 99 101 100 100
99 101 100 99 100 100 100 100 100 100 100 100 101 100 100 100 98 97 99 100 100 100 100 100 99 100 100 100 100 100 100 100 100 98 99 100 100 99 100 101 99 100
96 99 99 100 100 100 100 100 100 100 100 100 100 100 100 100 98 99 100 100 100 100 100 100 98 98 100 100 100 100 100 100 100 99 99 100 100 100 100 100 100 101
97 101 99 100 100 99 100 100 100 100 100 100 100 100 100 100 99 100 100 100 100 100 100 100 97 97 100 100 100 100 100 100 100 100 100 99 100 100 100 100 100 99
98 100 99 99 98 97 99 101 100 100 100 100 100 100 100 100 100 100 100 100 100 100 100 100 98 98 100 100 100 100 100 100 100 100 100 100 100 101 100 101 100 98
97 96 97 98 96 95 98 100 100 100 99 99 100 100 100 100 100 100 100 100 100 99 100 100 100 100 100 100 100 100 99 101 100 98 97 99 101 100 100 100 100 99

ECMWFNIL_850_rhum_018.txt.gz
RH
74 77 79 81 83 85 91 95 97 98 95 96 98 95 85 72 64 69 76 78 79 79 81 84 86 86 84 81 82 83 84 84 81 77 74 69 67 66 64 64 62 61
76 78 79 82 82 84 87 91 95 96 95 95 93 89 85 71 57 61 73 79 83 82 82 86 88 89 89 85 84 83 83 85 84 80 77 72 69 67 65 64 62 61
79 80 81 82 82 84 86 87 92 96 96 93 89 88 86 71 53 50 59 70 82 85 84 87 89 91 93 90 88 85 83 85 86 83 79 75 71 68 66 65 64 63
82 82 83 84 83 85 87 88 90 93 95 94 91 91 90 82 69 55 49 55 70 82 86 88 90 92 95 95 93 90 86 85 86 85 82 78 73 69 66 66 65 64
84 84 85 86 86 87 88 91 92 91 93 95 94 91 89 91 87 75 64 58 61 75 86 89 91 93 96 99 98 95 90 87 86 87 84 80 76 70 67 67 65 63
86 86 86 86 87 89 90 92 93 94 95 95 94 93 92 93 90 86 85 78 70 75 86 92 93 93 95 99 100 99 95 91 88 87 86 83 78 72 68 66 65 63
88 87 87 87 87 88 90 92 94 95 97 98 97 95 94 90 84 84 90 91 88 85 85 91 94 94 97 99 100 100 97 95 92 89 88 85 81 75 69 66 66 65
88 87 86 87 88 89 91 93 95 98 98 99 100 98 97 93 86 85 88 92 97 92 83 84 86 89 97 100 99 99 98 97 96 92 90 87 84 79 72 67 66 66
87 86 84 85 88 89 92 95 97 100 100 100 101 99 100 99 95 94 94 93 96 90 79 79 80 83 94 100 100 100 100 99 98 95 92 89 87 83 77 71 68 67
91 90 86 83 84 86 89 94 97 100 100 100 101 100 100 101 100 99 99 98 98 92 84 83 84 86 93 97 97 98 99 100 100 99 96 92 90 86 82 76 70 69
90 88 85 81 81 83 87 92 96 100 101 99 100 101 100 100 100 100 100 100 101 98 95 91 89 91 93 91 92 94 95 97 99 100 100 97 93 89 85 80 74 71
88 83 82 83 83 84 86 89 93 98 100 100 99 99 100 100 100 100 100 100 100 100 100 98 95 96 95 89 90 92 92 95 98 99 101 100 97 93 88 83 78 75
88 81 80 81 81 81 77 75 84 97 100 99 98 96 98 100 100 99 100 100 100 100 100 100 99 100 95 87 86 88 88 93 98 99 100 100 99 96 91 87 82 78
85 81 78 75 75 77 72 66 78 98 100 93 94 96 97 99 100 99 100 100 100 100 100 100 100 100 95 89 87 87 89 92 95 98 100 100 100 99 95 91 85 81
82 79 77 75 73 75 76 68 69 89 99 93 92 98 99 100 100 100 100 97 96 99 100 99 100 100 97 96 96 94 95 97 97 98 100 100 99 100 98 94 89 84
80 77 76 78 79 79 82 76 65 77 96 95 90 94 98 98 98 100 99 94 94 100 101 98 100 100 98 99 100 99 99 100 99 99 100 100 100 100 99 97 92 87
81 82 82 85 85 82 83 85 79 79 87 89 89 92 93 94 97 99 98 96 98 101 98 96 99 100 99 100 100 99 99 100 100 100 100 100 100 100 100 98 95 90
89 92 94 94 93 88 85 91 94 88 84 90 96 94 90 91 96 99 98 99 101 97 90 90 95 98 100 100 100 99 99 100 100 100 100 100 100 100 100 99 97 93
98 100 100 99 98 96 94 97 99 95 92 97 99 94 91 91 93 98 99 99 99 93 86 88 95 98 99 100 100 100 100 100 100 100 100 100 100 100 100 100 98 95
100 100 99 100 100 99 100 100 99 97 97 96 95 95 97 96 95 99 101 97 94 89 84 87 94 99 100 100 100 100 100 100 100 100 100 100 100 100 100 101 100 97
100 100 99 100 100 99 101 100 99 100 96 91 92 97 99 99 99 101 98 89 84 85 87 89 92 97 101 100 100 100 100 100 99 100 100 99 100 100 100 101 100 99
100 100 100 100 100 100 101 99 100 101 94 89 93 98 99 100 100 98 92 87 87 92 96 96 93 96 100 100 100 100 100 100 100 100 100 100 100 100 100 100 100 100
100 100 100 100 100 100 99 100 101 98 91 88 94 98 99 99 98 95 94 95 97 97 98 99 98 98 100 100 100 100 100 100 100 100 100 100 100 100 100 100 100 100
100 100 100 100 100 100 100 101 97 91 87 88 93 98 100 99 98 98 99 100 99 96 96 99 101 100 100 100 100 100 100 100 100 100 100 100 100 101 100 100 100 100
100 100 100 100 100 101 99 94 90 89 92 94 96 98 101 100 99 101 100 98 98 99 99 100 100 99 98 99 100 100 99 100 100 100 100 100 101 101 100 100 100 100
100 100 100 100 100 99 95 91 91 95 99 99 99 99 100 100 100 99 98 97 98 99 100 100 100 100 98 99 101 100 99 100 100 100 100 100 101 100 100 100 100 100

ECMWFNIL_850_rhum_021.txt.gz
RH
71 73 74 74 74 73 73 74 75 75 77 81 83 84 86 88 91 95 97 92 78 65 64 70 75 80 87 95 99 98 96 92 90 88 86 84 83 81 77 74 70 66
75 76 78 78 77 77 76 75 76 77 77 78 79 82 85 87 90 93 96 100 95 80 65 61 65 71 76 83 92 97 99 98 95 92 90 87 85 85 83 79 76 71
76 79 81 82 81 80 80 78 78 79 79 79 81 83 87 89 91 95 96 98 101 96 82 65 57 63 70 75 83 91 95 98 99 97 96 93 90 88 86 84 81 77
76 80 83 84 84 83 83 82 82 83 83 84 85 86 88 90 92 95 97 98 99 100 95 78 59 57 66 74 79 84 89 95 100 100 99 97 94 92 89 87 85 82
79 84 86 85 85 85 85 85 84 85 86 87 88 89 91 91 93 94 95 97 99 99 100 91 74 62 64 75 82 81 82 88 95 99 100 99 96 93 89 88 86 84
82 87 87 85 85 86 85 85 86 86 87 89 90 91 93 94 96 97 96 96 97 98 100 99 93 82 73 78 86 85 81 81 83 92 99 98 98 95 89 87 85 82
83 90 90 85 85 88 88 85 85 86 86 89 91 92 94 97 98 99 97 96 97 98 98 99 100 99 89 85 83 77 75 78 79 87 96 96 98 98 92 90 87 84
82 87 90 91 88 88 91 88 84 85 86 88 92 94 95 98 100 100 99 98 99 98 98 97 99 101 99 96 86 69 63 71 78 88 96 98 99 99 95 92 91 88
85 88 90 93 89 81 83 85 84 84 85 86 90 94 97 99 100 100 99 100 100 99 98 98 100 100 100 101 97 85 73 69 73 85 95 98 99 100 98 95 93 91
73 86 93 93 91 82 76 77 79 78 78 80 85 90 93 97 99 100 100 100 100 100 100 99 100 100 100 100 100 98 92 82 79 86 92 95 98 100 100 99 97 94
74 82 89 87 86 84 77 73 72 71 71 72 75 79 82 90 98 99 99 100 99 100 101 100 100 100 100 100 100 100 100 95 90 90 90 91 95 97 99 100 100 99
90 85 83 78 75 76 75 74 71 70 70 67 67 73 77 83 95 100 99 101 101 99 100 100 100 100 99 100 100 100 100 100 97 94 91 88 89 91 96 100 100 100
91 85 81 77 73 71 72 73 70 70 71 66 66 75 80 82 92 99 97 98 99 99 101 100 99 100 100 100 100 99 100 100 99 98 96 93 87 83 89 98 100 99
86 85 82 80 77 73 72 72 71 70 72 70 70 79 85 83 87 96 97 98 100 100 100 100 100 100 100 100 100 100 100 100 100 100 100 99 94 84 81 91 98 98
87 86 84 83 82 80 78 78 79 78 77 74 74 82 85 80 82 91 93 94 97 99 100 100 100 100 100 100 101 100 100 100 100 100 100 100 100 91 81 84 94 98
88 87 88 88 88 88 88 89 91 92 90 82 78 85 87 80 83 90 91 92 96 99 100 98 97 97 96 98 101 100 100 100 100 100 100 99 101 99 88 80 88 97
85 86 90 92 92 93 94 97 97 97 98 91 84 89 90 83 85 91 91 95 100 97 91 88 90 94 95 97 98 96 95 97 98 99 100 99 100 101 93 83 87 96
88 91 95 97 97 96 97 100 99 96 99 99 94 96 93 87 91 95 93 95 100 95 86 81 83 87 90 91 89 91 95 95 92 94 98 100 100 99 96 93 94 99
96 98 100 100 100 99 99 101 100 99 99 99 99 99 96 91 93 95 94 96 100 99 93 89 84 79 80 82 82 87 94 93 92 95 98 101 101 99 100 99 99 100
100 100 100 100 100 100 100 99 99 101 100 98 99 99 96 93 92 94 97 99 99 96 92 87 82 77 79 83 83 84 88 92 97 101 99 99 101 100 100 100 100 100
100 100 100 100 100 100 100 98 98 101 100 99 100 99 96 94 93 95 99 98 93 88 84 81 81 85 88 88 85 83 84 88 93 97 99 100 101 100 100 100 100 100
100 100 100 100 100 100 100 99 99 100 100 100 100 99 96 95 96 98 100 97 91 88 86 82 80 83 85 84 83 81 80 84 90 96 100 100 98 99 100 100 100 100
100 100 101 100 100 101 100 100 100 99 98 99 99 98 96 96 97 98 99 97 96 95 92 87 83 83 83 85 86 84 85 92 97 100 100 98 97 99 100 100 100 100
99 99 101 101 100 100 100 100 100 97 95 97 99 97 96 95 96 97 98 98 98 99 97 94 92 91 90 92 94 93 95 99 100 100 100 98 98 100 100 100 100 100
97 98 101 101 100 100 100 100 100 98 97 99 100 99 98 97 97 98 99 99 99 99 99 99 98 96 95 96 97 98 99 100 100 100 100 99 100 100 100 100 100 100
96 100 101 100 100 100 100 100 100 100 99 100 100 100 100 99 97 98 99 99 99 100 100 99 98 98 98 99 99 99 100 100 100 100 100 100 100 100 100 100 100 100

ECMWFNIL_850_rhum_024.txt.gz
RH
64 67 76 82 85 86 83 80 81 82 82 84 86 86 84 80 81 87 88 87 86 86 88 90 89 88 87 91 98 100 100 99 97 96 97 98 97 94 93 91 88 85
78 78 79 78 78 81 81 80 84 89 90 91 89 88 87 84 83 85 87 90 89 85 85 86 87 92 91 87 90 95 99 100 98 96 96 95 95 95 93 92 91 89
71 74 80 83 81 81 84 85 89 93 94 95 92 86 84 86 85 86 90 93 90 86 88 87 86 91 94 91 89 90 93 97 98 98 98 95 94 93 91 91 92 91
64 61 64 76 86 87 84 85 91 94 93 92 89 81 79 83 86 87 90 91 90 90 89 87 88 92 96 97 96 92 90 93 95 96 100 99 97 96 93 91 91 91
75 71 60 60 75 88 90 88 90 91 91 89 87 84 80 80 83 84 83 82 84 90 90 86 86 90 96 99 99 96 92 93 94 96 100 99 97 98 97 95 93 91
85 91 80 66 64 76 88 94 94 92 93 93 91 88 83 76 75 76 77 78 78 80 85 90 92 90 92 97 100 99 96 96 97 98 99 96 93 95 98 98 96 92
89 86 86 84 74 71 77 80 82 87 91 92 91 91 89 84 81 77 75 77 79 78 80 90 97 93 90 94 99 100 99 99 99 99 99 96 94 95 97 98 97 94
83 72 82 95 92 88 85 73 71 83 93 92 86 87 89 88 89 89 86 82 81 82 83 87 94 95 91 89 92 97 99 100 99 99 100 99 98 99 99 99 99 97
77 78 86 92 95 98 95 81 73 82 94 95 87 83 81 80 81 84 86 84 80 79 81 84 90 95 93 89 90 96 99 100 100 99 100 100 100 100 100 100 100 100
77 88 86 83 89 94 94 89 80 79 83 86 84 81 77 75 75 73 73 76 76 72 73 81 89 92 94 96 96 96 97 99 100 100 99 100 99 100 100 100 100 100
75 87 87 86 90 90 90 91 87 84 81 78 77 76 73 72 73 73 71 72 73 71 68 76 88 92 94 98 97 95 97 99 100 100 100 100 100 100 100 100 100 100
75 85 92 96 95 92 91 89 86 84 82 79 76 74 73 72 70 70 67 64 68 73 71 72 84 92 95 98 97 95 96 98 100 99 98 99 100 100 99 99 100 100
82 89 92 89 86 88 92 93 90 87 83 81 79 75 73 73 72 70 68 64 67 77 77 71 78 90 94 97 98 97 96 98 100 100 100 99 100 99 100 100 99 100
89 89 83 75 74 81 91 97 96 95 95 93 90 86 80 78 79 77 75 73 75 83 86 77 78 88 92 95 98 99 99 98 96 97 99 100 100 100 100 100 100 100
81 81 74 72 80 89 95 98 96 97 100 100 99 98 92 87 87 84 81 82 84 90 94 90 89 89 88 91 96 97 98 97 93 93 96 98 100 100 100 100 100 100
71 71 69 77 90 97 98 99 98 99 99 97 96 96 91 88 91 90 89 92 92 91 92 93 94 91 89 93 96 97 98 98 96 97 98 99 99 100 100 100 100 100
77 75 78 88 96 99 99 99 100 100 97 92 87 85 86 91 95 95 96 98 96 90 89 91 92 92 96 96 93 93 95 95 95 95 96 98 100 100 100 99 99 100
90 91 93 97 99 100 100 99 100 100 97 94 90 86 90 96 96 92 93 95 92 89 91 94 92 92 95 93 89 88 89 91 94 95 96 98 100 100 100 99 99 100
95 98 98 100 101 100 100 100 101 101 99 99 98 94 96 99 95 91 93 95 94 93 95 97 97 97 97 94 90 87 84 87 94 97 98 99 98 99 100 100 100 100
97 100 100 100 100 100 101 102 101 101 100 100 100 99 100 100 96 94 96 97 98 97 95 95 96 98 98 93 90 89 88 90 93 93 94 96 97 99 100 99 100 100
100 101 100 100 100 101 101 100 100 100 100 100 100 100 100 100 99 99 98 97 94 90 87 84 81 83 86 85 83 85 87 89 89 89 93 97 99 100 100 99 100 100
100 101 100 100 102 101 99 99 100 100 100 100 100 100 100 99 99 100 100 97 93 89 86 81 74 73 78 80 81 82 84 87 92 96 98 99 98 97 96 95 97 100
100 100 100 101 102 101 100 100 100 100 100 100 100 100 100 99 99 99 100 99 97 95 94 93 87 82 84 88 90 89 91 96 99 99 98 96 95 93 92 93 96 99
101 101 101 102 102 100 100 100 100 100 100 100 100 100 99 98 98 99 100 100 100 98 97 99 97 92 92 97 97 94 96 100 100 99 99 98 96 96 97 97 95 93
100 101 102 102 101 100 100 100 100 100 100 100 100 100 100 99 98 100 99 97 96 96 96 97 99 97 98 100 98 96 97 99 100 100 99 97 96 99 100 98 92 91
99 101 102 101 101 100 100 100 100 100 100 100 99 100 100 97 95 96 98 95 93 93 93 95 99 100 99 98 97 97 96 96 97 99 100 98 97 99 100 99 96 98

ECMWFNIL_850_rhum_027.txt.gz
RH
56 56 57 58 64 73 77 74 68 63 70 85 90 90 89 83 79 82 85 86 87 87 87 85 79 76 80 86 92 93 87 80 77 84 96 100 100 100 100 100 100 100
58 57 57 57 59 70 83 87 83 74 73 75 74 80 87 83 80 85 90 92 91 88 88 89 87 82 80 83 88 92 91 88 81 81 92 100 100 99 100 100 100 99
60 57 56 59 66 82 97 97 86 78 83 80 68 73 86 89 90 94 95 96 93 86 81 83 87 88 87 84 83 87 94 96 88 81 87 96 99 101 100 99 100 100
61 56 58 68 81 96 99 88 75 73 88 93 77 72 79 86 95 99 98 98 94 84 75 74 79 82 85 85 87 92 95 94 92 92 94 93 94 99 101 100 98 98
59 56 70 86 95 100 88 77 80 87 96 99 91 82 76 73 82 91 97 100 95 85 76 74 76 76 76 77 84 93 94 88 83 86 93 94 94 97 99 101 100 97
59 64 86 96 94 88 73 72 89 98 98 100 100 95 81 70 74 83 91 95 91 86 82 75 69 70 72 72 77 84 89 91 83 76 81 87 91 96 99 100 100 100
63 74 92 93 85 74 63 73 93 99 99 101 100 93 82 75 81 87 92 93 91 90 89 83 76 74 75 74 75 76 82 93 91 82 84 88 87 92 98 100 99 100
68 84 92 83 73 65 64 81 98 100 100 102 98 94 87 83 86 91 96 97 94 89 86 84 84 80 73 69 71 72 77 88 92 86 88 97 96 89 91 100 100 99
76 87 84 72 70 73 79 92 100 97 95 98 99 98 95 91 88 89 91 92 89 86 82 81 81 75 69 67 67 68 71 81 92 91 85 92 99 91 86 95 101 99
80 79 74 75 84 91 93 97 95 86 83 91 98 100 99 97 93 90 88 87 86 85 86 89 88 81 76 73 69 68 68 74 88 97 91 88 95 97 91 92 98 100
77 76 79 86 88 87 89 91 84 74 77 90 96 97 99 99 97 94 91 86 83 82 83 84 83 80 77 74 74 73 69 69 81 95 98 96 97 100 98 94 92 95
81 84 84 79 73 68 71 77 75 73 85 97 99 97 99 100 100 99 96 89 82 79 78 76 73 72 69 64 66 75 75 72 81 89 93 98 100 99 101 101 94 91
81 81 72 69 74 72 64 67 76 87 97 101 99 99 100 100 100 100 100 96 87 78 75 73 70 67 64 56 60 78 83 78 83 87 84 88 97 99 99 97 92 93
72 74 69 76 93 94 82 80 89 100 102 96 94 99 101 100 98 97 98 95 86 75 69 67 62 57 57 59 68 83 85 79 85 91 86 83 89 96 98 93 89 94
74 77 78 86 99 103 99 98 99 99 94 86 87 92 92 89 87 85 86 85 79 74 71 70 65 59 62 71 80 87 84 78 82 87 90 89 84 87 94 97 98 99
79 81 83 91 97 95 92 91 91 91 89 83 82 81 77 75 75 71 71 73 72 73 81 85 80 73 74 80 87 92 89 85 83 84 88 92 88 87 89 91 95 98
79 83 89 94 94 86 80 82 86 89 92 90 86 85 83 82 81 74 66 62 64 74 89 96 91 84 84 86 90 95 95 95 93 89 90 90 89 91 92 89 89 89
84 91 97 99 97 92 90 93 95 96 97 96 94 95 95 94 95 91 81 74 78 87 93 93 89 88 90 92 94 95 96 99 98 95 94 93 91 91 91 93 94 92
94 98 100 101 100 101 101 100 100 100 100 99 99 99 100 99 100 99 96 93 92 89 84 81 85 87 88 90 92 93 96 100 100 98 96 95 96 95 93 95 98 99
99 100 100 101 100 102 102 101 101 101 100 100 100 100 100 100 100 100 100 99 97 91 86 88 93 93 92 92 92 92 95 98 100 99 98 97 98 99 98 98 98 99
100 100 100 100 101 102 101 100 100 100 100 100 100 100 100 100 100 100 100 99 99 98 97 98 98 97 96 94 91 91 93 94 97 97 97 98 98 98 99 100 99 100
100 100 100 101 101 101 100 100 100 100 100 100 99 100 101 100 100 100 100 100 100 99 100 100 98 97 99 94 89 90 91 93 96 95 94 95 95 96 97 96 94 95
100 101 101 101 101 100 100 100 100 100 100 100 100 100 99 100 101 99 99 99 97 96 98 98 94 93 96 94 89 89 90 92 96 98 98 98 98 98 98 95 92 91
100 101 101 101 101 100 100 100 100 100 100 100 100 100 100 100 100 99 98 97 94 93 96 98 96 94 95 96 94 93 92 91 93 95 97 98 99 99 99 96 93 91
101 101 101 101 100 100 100 100 100 100 100 100 100 100 100 100 100 100 99 97 93 93 96 99 99 98 97 97 98 99 98 97 97 98 98 98 99 100 100 99 97 94
101 102 101 100 101 100 100 100 100 100 100 100 100 100 100 100 100 100 100 99 96 96 98 100 99 98 98 99 98 97 95 95 97 98 98 99 99 99 100 100 100 98

ECMWFNIL_850_rhum_030.txt.gz
RH
87 78 74 68 64 61 58 51 46 64 88 97 101 97 85 74 68 78 84 69 65 77 79 79 78 76 78 77 78 84 87 87 80 74 78 91 99 99 97 91 82 83
88 81 76 70 66 64 59 50 55 79 95 98 99 86 73 74 73 79 84 72 69 78 82 84 84 82 88 93 91 89 87 86 81 73 77 89 98 99 99 98 90 84
83 80 75 70 68 66 58 56 70 87 93 95 89 70 71 91 94 93 96 89 81 76 76 83 89 90 94 95 92 89 84 81 79 76 77 81 89 98 99 98 97 92
78 76 71 68 68 64 60 64 78 87 89 87 71 61 80 100 101 99 101 99 91 77 68 76 90 96 97 96 96 95 88 81 77 77 81 82 86 97 101 100 100 98
75 72 70 69 68 65 63 72 86 91 86 76 64 73 96 101 99 100 100 100 94 79 67 69 80 89 93 96 99 96 89 82 74 70 76 85 90 93 96 98 97 95
75 76 76 73 70 74 80 88 94 87 79 79 84 94 102 99 99 100 99 101 96 84 77 77 78 79 83 91 98 98 93 86 79 71 69 77 85 88 91 94 92 87
84 79 71 65 67 77 85 86 83 79 84 95 101 101 98 95 98 99 99 101 98 91 88 91 94 90 85 89 94 97 94 90 85 80 72 69 76 86 93 97 93 85
74 68 66 72 77 78 80 81 81 85 91 94 96 97 92 89 94 100 100 100 100 98 96 97 100 100 96 95 94 92 90 88 86 82 76 70 69 74 85 95 99 94
69 72 79 86 86 84 85 86 85 84 82 82 87 89 81 82 95 101 100 100 100 100 98 97 98 100 100 99 97 92 88 86 84 81 78 76 72 69 74 87 99 100
83 83 81 77 71 71 74 74 76 78 76 73 76 79 77 84 97 100 100 101 101 100 99 96 96 97 100 101 99 95 92 91 89 87 86 84 81 74 71 80 93 97
81 79 74 69 64 63 65 71 81 88 85 73 69 78 89 95 99 99 100 100 99 100 100 96 92 92 93 95 95 93 92 90 87 85 85 85 85 79 72 78 90 94
74 74 72 71 72 74 78 86 95 100 98 90 86 92 99 101 100 99 100 101 98 99 100 97 92 89 86 85 84 82 82 80 76 72 69 74 84 84 76 77 88 96
74 74 74 75 77 82 87 93 96 97 97 95 94 96 97 97 95 93 94 95 93 93 96 97 93 88 83 81 79 77 75 73 72 66 59 66 83 88 80 76 81 89
75 75 76 77 80 86 91 91 88 84 82 79 79 81 83 83 81 79 78 79 82 84 86 87 86 83 80 77 75 74 72 69 66 60 55 64 83 92 88 83 79 79
78 79 80 83 88 94 97 95 92 88 82 76 74 74 75 77 77 76 71 66 67 72 75 77 77 75 73 72 69 67 64 61 59 54 54 65 82 93 91 86 80 74
84 87 90 93 96 99 100 100 99 96 91 85 82 83 85 89 91 90 83 73 65 63 65 69 71 70 69 66 65 65 62 60 55 51 55 69 82 89 88 85 84 79
93 95 97 98 99 100 100 101 101 98 96 95 94 94 96 99 100 99 97 92 85 75 65 62 66 68 64 61 64 67 65 61 56 52 60 74 82 89 91 88 89 90
98 99 100 100 100 100 100 101 102 101 100 100 99 99 100 100 100 100 100 100 99 96 83 68 60 58 59 65 72 73 69 67 65 63 69 78 82 88 97 96 94 96
100 99 100 100 100 101 101 100 101 101 100 100 100 100 100 100 100 100 100 100 100 101 97 86 75 70 74 82 87 87 86 87 86 83 81 84 85 89 97 100 98 98
100 99 100 100 100 100 101 101 101 100 100 100 100 100 100 100 100 100 100 101 100 100 100 98 93 87 84 85 88 89 91 95 98 95 90 88 89 92 97 100 100 100
100 100 100 100 101 101 100 101 101 100 100 100 100 100 100 100 100 100 100 100 100 100 100 99 99 96 93 93 95 94 93 95 99 99 96 93 92 94 98 100 100 99
100 101 100 100 101 101 100 100 100 100 100 100 100 100 100 100 100 100 100 100 100 100 100 97 95 98 100 99 96 94 95 98 99 98 99 99 98 98 100 101 101 101
100 100 100 101 101 100 100 100 100 100 100 100 100 100 100 100 100 100 100 100 100 100 100 96 92 93 97 97 93 91 93 95 94 92 92 93 92 93 94 92 92 94
101 101 101 101 101 100 100 100 100 100 100 100 100 100 100 100 100 100 100 99 100 100 100 99 96 95 98 100 97 94 93 93 93 90 87 85 83 83 84 83 83 83
101 102 101 100 101 100 100 101 100 100 100 100 100 100 100 100 100 99 98 98 99 99 100 100 99 98 99 98 96 95 96 98 99 97 94 92 90 90 90 90 90 90
102 102 101 100 101 100 100 101 100 100 100 100 100 101 100 100 101 100 100 101 99 96 97 100 100 99 96 93 92 95 97 98 99 99 98 99 99 98 98 97 98 97

ECMWFNIL_850_rhum_036.txt.gz
RH
79 81 80 76 71 75 79 75 74 85 94 94 91 87 85 83 80 76 72 68 69 70 62 54 49 44 39 41 56 68 65 74 91 94 90 85 85 87 83 73 64 66
84 81 76 74 75 84 92 92 89 88 86 83 78 77 77 75 73 73 76 80 79 74 66 59 50 45 53 67 81 89 81 73 78 85 86 82 80 80 75 70 64 62
85 78 76 82 89 94 97 95 90 79 71 69 68 70 74 76 79 81 85 91 90 84 77 71 69 71 83 95 98 99 97 88 78 80 87 88 86 83 72 64 64 67
80 78 88 97 97 95 94 84 75 72 75 81 84 88 90 91 92 91 89 89 89 91 89 84 87 94 96 98 100 99 100 98 91 90 95 95 96 93 81 73 76 83
78 84 97 102 94 87 81 72 75 87 94 93 92 93 93 92 91 88 85 82 82 87 86 81 88 95 94 95 101 101 99 100 99 98 96 95 99 99 92 90 92 91
81 87 95 93 87 81 77 74 80 87 86 81 80 79 79 81 82 82 81 79 79 77 72 77 91 97 96 98 101 99 98 97 97 97 94 90 96 100 98 98 97 92
83 86 89 85 82 81 80 79 77 77 75 74 72 69 67 68 70 72 71 70 73 73 71 81 93 95 96 100 101 99 97 96 94 97 96 87 89 99 101 100 98 95
82 84 85 81 79 79 77 76 75 75 76 75 74 73 73 74 74 74 72 71 75 79 80 85 91 96 100 101 100 100 99 98 95 97 96 86 84 93 99 101 99 96
84 83 82 80 78 77 76 77 78 78 79 80 80 82 87 94 96 95 93 91 93 94 92 92 96 99 101 99 99 101 100 100 98 97 96 92 89 92 97 99 97 94
84 82 81 80 79 80 81 82 83 84 86 88 89 90 95 99 99 98 98 97 99 101 99 99 101 100 100 100 100 100 99 100 101 99 98 97 95 96 98 96 94 95
86 85 84 84 86 88 90 90 91 93 94 96 97 98 97 95 91 86 85 87 91 97 100 100 99 98 99 99 98 99 100 100 100 100 100 98 97 98 97 93 92 97
90 88 89 92 94 96 97 97 97 98 99 99 100 100 99 98 96 90 82 78 79 85 90 92 91 90 91 92 92 95 98 100 100 100 100 98 99 100 98 94 94 99
93 92 95 98 99 100 99 99 99 99 99 99 99 101 100 100 100 98 91 82 74 74 78 80 79 77 77 81 85 88 91 97 101 100 99 99 99 100 100 98 99 99
96 97 100 100 100 100 100 100 100 100 100 100 100 100 100 100 100 100 98 89 77 70 70 71 71 68 68 71 76 80 84 91 98 100 100 100 99 100 100 99 98 93
99 100 100 100 100 100 100 100 100 100 100 100 100 100 100 101 100 100 100 96 86 78 73 70 67 63 60 61 65 72 78 82 89 96 98 98 97 97 95 92 90 83
101 101 100 101 100 100 101 100 100 100 100 100 100 100 100 100 100 100 100 99 97 95 91 86 81 74 68 64 60 63 70 74 79 86 93 96 94 92 90 87 84 79
101 100 100 101 100 100 100 100 100 100 100 100 100 100 100 100 100 100 100 100 100 101 100 98 95 91 89 86 77 66 63 68 72 77 83 88 89 87 87 86 83 80
101 101 101 100 100 101 100 100 101 100 100 101 100 100 100 100 100 100 100 101 100 100 101 100 99 98 98 99 97 84 69 63 65 70 75 80 82 81 81 82 80 78
102 101 100 101 100 100 100 100 100 100 100 100 100 100 101 100 100 101 99 100 100 100 101 100 99 101 100 99 101 97 85 72 63 63 67 71 73 75 75 75 73 71
102 100 100 101 100 100 100 100 100 100 100 100 100 100 100 100 100 100 100 101 100 99 100 100 100 100 100 100 100 98 95 85 68 57 59 64 65 68 68 66 64 62
101 100 100 100 100 101 100 100 100 100 100 100 100 100 100 100 100 100 100 100 100 100 100 100 101 100 99 101 101 98 98 93 74 56 52 55 56 59 60 58 56 54
101 101 101 100 100 100 100 100 100 100 100 100 100 100 100 100 100 100 100 100 100 100 100 99 100 101 100 100 100 99 99 99 90 75 64 58 54 54 54 53 54 55
101 101 100 100 101 100 100 101 100 100 100 100 100 100 100 100 100 100 100 101 100 100 100 97 97 99 100 99 100 101 99 99 100 97 88 76 67 65 67 70 77 80
101 101 100 100 100 100 100 100 100 100 100 100 100 100 100 101 101 99 100 101 100 101 101 96 93 97 101 100 99 100 101 99 99 101 99 93 86 86 89 93 97 99
101 101 100 100 100 100 100 100 100 100 100 100 100 100 100 101 101 99 99 100 100 99 99 96 91 90 96 101 100 99 100 100 100 100 100 99 98 98 100 100 100 100
102 101 101 101 100 100 100 100 100 100 100 100 100 100 101 101 100 97 95 96 95 92 93 97 94 85 85 93 99 101 101 100 100 100 100 100 101 100 99 100 100 101

ECMWFNIL_850_rhum_039.txt.gz
RH
70 81 88 94 95 90 87 86 85 87 90 93 94 95 94 88 84 83 82 82 81 80 79 75 71 67 64 63 60 58 55 52 49 45 41 38 36 40 57 80 92 94
87 92 92 89 87 87 89 91 93 93 95 97 95 91 87 83 81 83 84 85 84 85 87 86 81 73 64 60 59 57 56 51 47 47 44 39 40 45 50 61 77 87
89 88 87 83 83 91 99 100 99 97 91 86 83 85 89 90 92 95 96 94 94 95 95 92 85 75 68 67 67 64 63 67 68 71 72 67 62 61 53 52 66 82
85 86 86 85 84 90 96 97 96 91 84 79 80 89 95 94 92 91 90 92 97 97 94 91 85 77 74 76 79 73 69 78 88 93 98 96 88 80 68 61 68 80
90 92 90 89 85 84 87 88 87 84 83 81 81 84 86 85 85 82 76 75 83 89 90 89 85 78 73 71 73 70 62 68 82 92 100 101 99 93 79 70 74 86
94 93 91 88 85 84 85 83 81 81 81 81 80 81 82 82 82 82 75 66 65 70 76 80 80 77 71 65 65 61 56 66 84 95 99 99 102 99 82 73 78 89
93 91 88 87 86 85 84 82 82 82 82 82 83 83 83 84 83 84 84 81 76 69 66 68 70 69 67 63 63 58 62 81 96 100 101 97 97 95 82 78 83 88
92 91 89 88 88 87 87 87 88 88 88 89 89 88 88 89 89 88 89 95 97 91 82 76 70 67 68 69 72 77 85 98 101 99 101 99 97 94 86 85 92 92
94 93 92 92 91 90 91 91 93 95 96 95 94 95 94 94 95 95 96 99 101 101 100 97 90 86 89 89 91 97 99 100 100 99 101 100 99 99 93 93 99 96
96 95 96 96 93 94 94 95 97 98 98 98 98 98 99 100 100 99 100 99 94 92 91 92 96 99 101 100 99 100 101 100 100 100 100 100 101 101 98 98 99 92
99 98 98 97 96 98 99 99 100 99 99 100 99 100 100 100 100 100 102 101 95 91 84 80 88 96 97 100 101 100 100 100 99 100 101 100 100 100 100 100 99 91
101 100 99 100 100 100 100 100 100 100 101 100 99 101 100 100 101 101 101 101 98 96 90 79 78 85 89 93 96 98 99 97 96 98 100 100 100 101 100 99 100 97
100 100 100 101 100 100 100 100 101 100 100 101 100 100 100 100 101 100 100 101 98 97 95 85 76 75 80 83 84 86 88 89 92 94 95 98 100 101 100 99 99 99
101 101 101 101 100 101 101 100 100 101 100 100 100 100 101 100 100 100 100 100 100 98 97 94 84 72 70 73 74 74 74 78 83 87 90 93 97 100 101 100 100 99
101 100 100 101 101 100 101 100 100 101 100 100 100 100 100 100 100 100 100 100 101 100 99 100 95 81 70 67 66 64 65 69 74 78 81 83 88 98 100 98 100 101
101 101 101 101 101 100 100 101 100 100 100 100 100 100 100 100 100 100 100 100 100 100 100 101 99 94 87 80 73 65 60 60 65 71 76 75 76 89 98 97 98 101
101 101 101 100 101 101 100 100 100 100 101 100 100 101 100 100 101 100 100 101 100 100 101 100 99 99 99 97 92 85 74 65 61 62 68 71 69 77 92 97 97 99
101 100 101 101 101 100 100 100 101 100 100 101 100 100 100 100 101 100 100 100 100 100 100 100 101 100 100 100 100 99 96 89 78 67 63 67 68 70 80 90 95 96
101 100 101 101 100 101 100 100 100 100 100 100 100 100 100 100 100 100 100 100 100 101 100 100 101 100 100 101 99 100 101 100 97 86 70 63 65 68 72 79 87 91
101 101 101 102 101 100 100 100 100 100 100 100 100 101 100 100 101 100 100 101 100 100 100 100 100 100 100 100 100 100 100 99 101 99 84 67 61 64 65 69 78 84
101 100 100 102 102 101 101 101 100 100 101 100 100 100 100 100 100 100 100 100 101 100 100 100 101 101 100 100 100 100 101 100 98 96 87 70 59 59 59 61 69 77
100 99 99 100 101 101 101 100 100 101 101 100 100 100 101 100 100 101 101 100 100 100 100 98 97 98 100 101 100 100 100 101 100 95 86 71 58 55 54 56 63 70
100 100 99 98 98 99 100 100 100 101 100 100 101 100 100 101 100 99 100 100 101 100 101 98 93 92 95 97 100 101 99 99 101 100 95 84 69 58 52 51 57 64
102 101 100 99 98 98 100 100 100 101 100 100 101 101 101 101 101 99 98 98 98 97 99 100 92 86 88 92 96 101 100 100 100 100 100 98 92 83 71 59 53 55
103 101 100 100 100 99 100 100 100 100 100 100 100 101 101 101 101 100 96 93 95 98 100 101 94 84 83 86 90 96 100 101 100 100 100 100 100 100 96 82 67 56
103 102 101 101 101 100 99 100 101 100 100 100 100 100 101 101 100 99 92 87 89 93 94 98 99 91 85 83 84 88 96 101 100 99 101 101 99 100 101 98 91 82